Regional Weather Roundup
Issued by NWS Sioux Falls, SD

Home | Current Version | Previous Version | Text Only | Print | Product List | Glossary On
Versions: 1 2 3 4 5 6 7 8 9 10 11 12 13 14 15 16 17 18 19 20 21 22 23 24 25 26 27 28 29 30 31 32 33 34 35 36 37 38 39 40 41 42 43 44 45 46 47 48 49 50
000
ASUS43 KFSD 271102
RWRFSD

WEATHER ROUNDUP FOR SE SOUTH DAKOTA/SW MINNESOTA/NW IOWA
NATIONAL WEATHER SERVICE SIOUX FALLS SD
600 AM CDT MON MAR 27 2017

NOTE: "FAIR" INDICATES FEW OR NO CLOUDS BELOW 12,000 FEET WITH NO
SIGNIFICANT WEATHER AND OR OBSTRUCTIONS TO VISIBILITY.


SDZ038>040-050-052>070-271200-
SOUTHEAST SOUTH DAKOTA

CITY           SKY/WX    TMP DP  RH WIND       PRES   REMARKS
BROOKINGS      FOG       31  31 100 CALM      29.94S VSB 1/4
CHAMBERLAIN    NOT AVBL
HURON          CLOUDY    38  36  92 S3        29.94R
MADISON        FOG       32  32 100 CALM      29.94S VSB<1/4
MITCHELL       FOG       31  31 100 SW3       29.96R VSB 1/2
SIOUX FALLS    CLOUDY    40  38  93 NE3       29.95S
WINNER         LGT SNOW  34  33  96 CALM      29.94R FOG
YANKTON        CLOUDY    43  39  87 CALM      29.95S
$$

MNZ071-072-080-081-089-090-097-098-271200-
SOUTHWEST MINNESOTA

CITY           SKY/WX    TMP DP  RH WIND       PRES   REMARKS
FAIRMONT       CLOUDY    39  37  92 NW3       29.96R
JACKSON        CLOUDY    37  36  93 NW6       29.95S FOG
MARSHALL       CLOUDY    38  36  92 CALM      29.96S
MONTEVIDEO     CLOUDY    36  36 100 N5        29.98S
PIPESTONE      CLOUDY    36  34  93 CALM      29.94R
REDWOOD FALLS  CLOUDY    40  36  86 N6        29.95S
TRACY          CLOUDY    40  38  91 CALM      29.96S
WINDOM         MOCLDY    39  37  93 N6        29.95S
WORTHINGTON    MOCLDY    36  33  89 N3        29.95S
$$

IAZ001>003-012>014-020>022-031-032-NEZ013-014-SDZ071-271200-
NORTHWEST IOWA

CITY           SKY/WX    TMP DP  RH WIND       PRES   REMARKS
CHEROKEE       CLOUDY    40  40  98 CALM      29.96R
ESTHERVILLE    CLOUDY    37  37 100 NW5       29.95R
LE MARS        CLOUDY    41  41 100 CALM      29.97R
ORANGE CITY    CLOUDY    39  39 100 CALM      29.95S
SHELDON        CLOUDY    37  37 100 NE5       29.94S FOG
SIOUX CITY     CLOUDY    42  40  92 N5        29.96R
SPENCER        CLOUDY    39  38  96 NW3       29.96R
STORM LAKE     CLOUDY    39  39 100 N5        29.95S
$$

ABBREVIATIONS USED IN REMARKS
   TC - TEMPERATURE IN CELSIUS
  WCI - WIND CHILL INDEX
   HX - HEAT INDEX
  VSB - VISIBILITY




USA.gov is the U.S. government's official web portal to all federal, state and local government web resources and services.